TimeEDT,TemperatureF,Dew PointF,Humidity,Sea Level PressureIn,VisibilityMPH,Wind Direction,Wind SpeedMPH,Gust SpeedMPH,PrecipitationIn,Events,Conditions,WindDirDegrees,DateUTC
12:53 AM,30.0,21.9,72,30.32,10.0,Calm,Calm,-,N/A,,Clear,0,2013-03-29 04:53:00
1:53 AM,28.0,21.9,78,30.32,10.0,Calm,Calm,-,N/A,,Clear,0,2013-03-29 05:53:00
2:53 AM,28.0,21.9,78,30.32,10.0,Calm,Calm,-,N/A,,Clear,0,2013-03-29 06:53:00
3:53 AM,27.0,21.0,78,30.32,10.0,Calm,Calm,-,N/A,,Clear,0,2013-03-29 07:53:00
4:53 AM,28.0,21.0,75,30.32,10.0,Calm,Calm,-,N/A,,Clear,0,2013-03-29 08:53:00
5:53 AM,26.1,21.0,81,30.31,10.0,Calm,Calm,-,N/A,,Clear,0,2013-03-29 09:53:00
6:53 AM,25.0,21.0,85,30.32,10.0,Calm,Calm,-,N/A,,Clear,0,2013-03-29 10:53:00
7:53 AM,25.0,19.9,81,30.32,10.0,Calm,Calm,-,N/A,,Clear,0,2013-03-29 11:53:00
8:53 AM,30.0,26.1,85,30.32,10.0,Calm,Calm,-,N/A,,Clear,0,2013-03-29 12:53:00
9:53 AM,37.9,24.1,57,30.33,10.0,Calm,Calm,-,N/A,,Clear,0,2013-03-29 13:53:00
10:53 AM,44.1,19.0,37,30.32,10.0,WNW,9.2,-,N/A,,Clear,290,2013-03-29 14:53:00
11:53 AM,46.0,18.0,33,30.32,10.0,NW,4.6,-,N/A,,Clear,320,2013-03-29 15:53:00
12:53 PM,48.9,19.0,31,30.31,10.0,Variable,6.9,-,N/A,,Clear,0,2013-03-29 16:53:00
1:53 PM,48.9,18.0,29,30.29,10.0,WNW,6.9,-,N/A,,Clear,300,2013-03-29 17:53:00
2:53 PM,51.1,18.0,27,30.27,10.0,Calm,Calm,-,N/A,,Clear,0,2013-03-29 18:53:00
3:53 PM,52.0,19.0,27,30.25,10.0,NW,10.4,16.1,N/A,,Clear,310,2013-03-29 19:53:00
4:53 PM,51.1,19.9,29,30.24,10.0,West,9.2,-,N/A,,Clear,280,2013-03-29 20:53:00
5:53 PM,50.0,19.0,29,30.25,10.0,NNW,11.5,-,N/A,,Clear,330,2013-03-29 21:53:00
6:53 PM,48.0,19.0,32,30.26,10.0,NW,11.5,-,N/A,,Clear,320,2013-03-29 22:53:00
7:53 PM,44.1,18.0,35,30.26,10.0,WNW,9.2,-,N/A,,Clear,300,2013-03-29 23:53:00
8:53 PM,39.9,18.0,41,30.27,10.0,NW,6.9,-,N/A,,Clear,310,2013-03-30 00:53:00
9:53 PM,36.0,18.0,48,30.27,10.0,NW,5.8,-,N/A,,Clear,310,2013-03-30 01:53:00
10:53 PM,36.0,19.0,50,30.27,10.0,Calm,Calm,-,N/A,,Clear,0,2013-03-30 02:53:00
11:53 PM,35.1,19.9,54,30.26,10.0,WNW,3.5,-,N/A,,Clear,290,2013-03-30 03:53:00